TOM2DL EGCC-LGKO

Flight info

Callsign TOM2DL
Flight time N/A
Altitude 37000
Route DESIG L603 DOLAS DCT NAVPI DCT DODEN DCT NEGIX DCT DINKU DCT BESNI DCT LATLO DCT OBEDI DCT BERTA DCT TEBLI DCT TIVNU DCT MEDUX UM867 KOGAT DCT ERANA UL737 TSL UN130 MES UN139 LURUS L995 KOPAR
Aircraft B738/M-SDE2E3FGHIRWXY/LB1

Departure

Time 2026-05-06 18:44
Airport Manchester Airport (EGCC)

Arrival

Time N/A
Airport Kos International Airport "Ippokratis" (LGKO)
Time Latitude Longitude Altitude Speed Heading
2026-05-06 18:17 53.36838 -2.28886 254 ft 0 kts 135°
2026-05-06 18:33 53.36838 -2.28887 254 ft 0 kts 135°
2026-05-06 18:34 53.36853 -2.28912 254 ft 2 kts 135°
2026-05-06 18:34 53.36867 -2.28931 254 ft 4 kts 192°
2026-05-06 18:34 53.36885 -2.28910 254 ft 2 kts 225°
2026-05-06 18:34 53.36872 -2.28931 254 ft 2 kts 225°
2026-05-06 18:35 53.36870 -2.28934 254 ft 0 kts 225°
2026-05-06 18:37 53.36843 -2.28979 254 ft 14 kts 224°
2026-05-06 18:37 53.36782 -2.29033 254 ft 10 kts 200°
2026-05-06 18:37 53.36723 -2.29002 254 ft 11 kts 131°
2026-05-06 18:38 53.36653 -2.28898 254 ft 16 kts 162°
2026-05-06 18:38 53.36580 -2.28773 254 ft 15 kts 116°
2026-05-06 18:38 53.36514 -2.28641 254 ft 15 kts 146°
2026-05-06 18:38 53.36441 -2.28523 254 ft 15 kts 135°
2026-05-06 18:39 53.36341 -2.28457 254 ft 16 kts 149°
2026-05-06 18:39 53.36264 -2.28333 254 ft 15 kts 134°
2026-05-06 18:39 53.36181 -2.28191 254 ft 18 kts 134°
2026-05-06 18:40 53.35995 -2.27907 254 ft 19 kts 140°
2026-05-06 18:40 53.35874 -2.27852 253 ft 19 kts 185°
2026-05-06 18:40 53.35734 -2.27876 245 ft 21 kts 187°
2026-05-06 18:40 53.35598 -2.27957 238 ft 22 kts 233°
2026-05-06 18:41 53.35484 -2.28131 234 ft 22 kts 205°
2026-05-06 18:41 53.35336 -2.28190 234 ft 22 kts 197°
2026-05-06 18:41 53.35218 -2.28336 232 ft 21 kts 225°
2026-05-06 18:41 53.35119 -2.28528 226 ft 22 kts 231°
2026-05-06 18:42 53.35026 -2.28724 226 ft 23 kts 229°
2026-05-06 18:42 53.34915 -2.28914 224 ft 23 kts 225°
2026-05-06 18:42 53.34806 -2.29065 218 ft 9 kts 194°
2026-05-06 18:42 53.34795 -2.29069 218 ft 0 kts 191°
2026-05-06 18:43 53.34783 -2.29072 218 ft 8 kts 186°
2026-05-06 18:43 53.34689 -2.29019 217 ft 19 kts 139°
2026-05-06 18:43 53.34714 -2.28867 221 ft 13 kts 49°
2026-05-06 18:44 53.34813 -2.28675 228 ft 47 kts 50°
2026-05-06 18:44 53.35165 -2.27932 236 ft 114 kts 51°
2026-05-06 18:44 53.35774 -2.26674 380 ft 153 kts 50°
2026-05-06 18:44 53.36475 -2.25270 951 ft 162 kts 51°
2026-05-06 18:45 53.37185 -2.23778 1623 ft 169 kts 53°
2026-05-06 18:45 53.37973 -2.22087 1922 ft 198 kts 53°
2026-05-06 18:45 53.38876 -2.20155 2150 ft 221 kts 52°
2026-05-06 18:45 53.39862 -2.18048 2436 ft 242 kts 52°
2026-05-06 18:46 53.40917 -2.15804 3027 ft 251 kts 52°
2026-05-06 18:46 53.42000 -2.13502 3885 ft 252 kts 52°
2026-05-06 18:46 53.43095 -2.11161 4572 ft 258 kts 52°
2026-05-06 18:46 53.44218 -2.08778 4957 ft 262 kts 51°
2026-05-06 18:47 53.45355 -2.06359 5028 ft 266 kts 51°
2026-05-06 18:47 53.46506 -2.03912 5697 ft 267 kts 51°
2026-05-06 18:47 53.47659 -2.01458 6513 ft 268 kts 51°
2026-05-06 18:47 53.48826 -1.98983 7244 ft 273 kts 50°
2026-05-06 18:48 53.50025 -1.96472 7949 ft 277 kts 50°
2026-05-06 18:48 53.51243 -1.93933 8675 ft 281 kts 50°
2026-05-06 18:48 53.52374 -1.91221 9340 ft 287 kts 64°
2026-05-06 18:48 53.52818 -1.87937 10021 ft 293 kts 93°
2026-05-06 18:49 53.52329 -1.84558 10467 ft 308 kts 109°
2026-05-06 18:49 53.51566 -1.81101 10637 ft 330 kts 110°
2026-05-06 18:49 53.50758 -1.77330 10967 ft 345 kts 109°
2026-05-06 18:49 53.49989 -1.73469 11583 ft 351 kts 108°
2026-05-06 18:50 53.49258 -1.69540 12280 ft 354 kts 107°
2026-05-06 18:50 53.48555 -1.65614 12968 ft 357 kts 106°
2026-05-06 18:50 53.47833 -1.61538 13643 ft 362 kts 106°
2026-05-06 18:50 53.47122 -1.57521 14309 ft 366 kts 106°
2026-05-06 18:51 53.46388 -1.53409 15010 ft 369 kts 107°
2026-05-06 18:51 53.45644 -1.49260 15707 ft 373 kts 107°
2026-05-06 18:51 53.44890 -1.45067 16343 ft 377 kts 107°
2026-05-06 18:51 53.44126 -1.40827 16974 ft 382 kts 107°
2026-05-06 18:52 53.43355 -1.36548 17606 ft 385 kts 107°
2026-05-06 18:52 53.42573 -1.32221 18215 ft 390 kts 107°
2026-05-06 18:52 53.41781 -1.27848 18805 ft 394 kts 107°
2026-05-06 18:52 53.40982 -1.23445 19441 ft 396 kts 107°
2026-05-06 18:53 53.40177 -1.19009 20044 ft 399 kts 107°
2026-05-06 18:53 53.39358 -1.14526 20559 ft 404 kts 107°
2026-05-06 18:53 53.38533 -1.10017 21110 ft 407 kts 107°
2026-05-06 18:53 53.37707 -1.05518 21664 ft 410 kts 107°
2026-05-06 18:54 53.36867 -1.00948 22188 ft 413 kts 107°
2026-05-06 18:54 53.36015 -0.96321 22698 ft 416 kts 107°
2026-05-06 18:54 53.35157 -0.91670 23159 ft 420 kts 107°
2026-05-06 18:54 53.34289 -0.86977 23617 ft 424 kts 107°
2026-05-06 18:55 53.33414 -0.82259 24107 ft 426 kts 107°
2026-05-06 18:55 53.32531 -0.77507 24574 ft 428 kts 107°
2026-05-06 18:55 53.31649 -0.72775 25042 ft 431 kts 107°
2026-05-06 18:55 53.30743 -0.67926 25483 ft 434 kts 107°
2026-05-06 18:56 53.29850 -0.63167 25886 ft 436 kts 107°
2026-05-06 18:56 53.28936 -0.58311 26303 ft 439 kts 107°
2026-05-06 18:56 53.28017 -0.53427 26703 ft 441 kts 107°
2026-05-06 18:56 53.27091 -0.48523 27076 ft 444 kts 107°
2026-05-06 18:57 53.26157 -0.43590 27431 ft 447 kts 107°
2026-05-06 18:57 53.25215 -0.38623 27780 ft 449 kts 108°
2026-05-06 18:57 53.24263 -0.33628 28102 ft 453 kts 108°
2026-05-06 18:57 53.23306 -0.28617 28452 ft 455 kts 108°
2026-05-06 18:58 53.22341 -0.23580 28806 ft 456 kts 108°
2026-05-06 18:58 53.21371 -0.18526 29148 ft 458 kts 108°
2026-05-06 18:58 53.20393 -0.13446 29471 ft 460 kts 108°
2026-05-06 18:58 53.19423 -0.08414 29773 ft 462 kts 108°
2026-05-06 18:59 53.18435 -0.03301 30057 ft 464 kts 108°
2026-05-06 18:59 53.17441 0.01825 30322 ft 466 kts 108°
2026-05-06 18:59 53.16433 0.06996 30536 ft 470 kts 109°
2026-05-06 18:59 53.15418 0.12190 30745 ft 473 kts 109°
2026-05-06 19:00 53.14398 0.17401 31148 ft 471 kts 109°
2026-05-06 19:00 53.13385 0.22565 31614 ft 467 kts 109°
2026-05-06 19:00 53.12375 0.27701 31965 ft 466 kts 109°
2026-05-06 19:00 53.11707 0.31094 32143 ft 467 kts 109°
2026-05-06 19:01 53.10347 0.37980 32528 ft 468 kts 109°
2026-05-06 19:01 53.09331 0.43106 32909 ft 465 kts 109°
2026-05-06 19:01 53.08315 0.48217 33239 ft 464 kts 109°
2026-05-06 19:01 53.07299 0.53316 33512 ft 464 kts 109°
2026-05-06 19:02 53.06282 0.58412 33776 ft 464 kts 109°
2026-05-06 19:02 53.05277 0.63430 34073 ft 464 kts 109°
2026-05-06 19:02 53.04257 0.68510 34381 ft 463 kts 110°
2026-05-06 19:02 53.03238 0.73579 34621 ft 463 kts 110°
2026-05-06 19:03 53.02212 0.78661 34820 ft 464 kts 110°
2026-05-06 19:03 53.01184 0.83744 35072 ft 464 kts 110°
2026-05-06 19:03 53.00156 0.88816 35343 ft 464 kts 110°
2026-05-06 19:03 52.99127 0.93883 35631 ft 462 kts 110°
2026-05-06 19:04 52.98096 0.98936 35841 ft 463 kts 110°
2026-05-06 19:04 52.97032 1.03995 36035 ft 464 kts 111°
2026-05-06 19:04 52.95913 1.09023 36253 ft 464 kts 112°
2026-05-06 19:04 52.94771 1.14019 36462 ft 464 kts 112°
2026-05-06 19:05 52.93618 1.19028 36636 ft 465 kts 112°
2026-05-06 19:05 52.92467 1.24027 36881 ft 464 kts 112°
2026-05-06 19:05 52.91322 1.29014 37048 ft 464 kts 112°
2026-05-06 19:06 52.89051 1.38927 37010 ft 459 kts 112°
2026-05-06 19:06 52.86809 1.48707 37016 ft 452 kts 112°
2026-05-06 19:07 52.84568 1.58441 37029 ft 452 kts 112°
2026-05-06 19:07 52.82318 1.68169 37019 ft 453 kts 112°
2026-05-06 19:08 52.80054 1.77906 37021 ft 454 kts 112°
2026-05-06 19:08 52.77778 1.87642 37019 ft 455 kts 112°
2026-05-06 19:09 52.75492 1.97395 37014 ft 456 kts 112°
2026-05-06 19:09 52.73191 2.07160 37012 ft 457 kts 112°
2026-05-06 19:10 52.70880 2.16929 37008 ft 457 kts 112°
2026-05-06 19:10 52.68555 2.26701 37004 ft 457 kts 112°